Snowfall_Accumulation
0.0 0.0 0.0 0.0 0.0 0.0 0.0 0.0 0.0 0.0 0.0 0.0 0.0 0.0 0.0 0.0 0.0 0.2 0.0 0.0 0.0 0.0 0.0 0.0 0.0 0.0 0.0 0.0 0.0 0.0 0.0 0.0 0.0 0.0 0.0 0.0 0.0 0.0 0.0 0.0 0.0 0.0 0.0 0.0 0.0 0.0 0.0 0.0 0.0
0.0 0.0 0.0 0.0 0.0 0.1 0.0 0.0 0.0 0.0 0.0 0.0 0.0 0.0 0.0 0.1 0.0 0.0 0.0 0.0 0.0 0.0 0.0 0.0 0.0 0.0 0.0 0.0 0.0 0.0 0.0 0.0 0.0 0.0 0.0 0.0 0.0 0.0 0.0 0.0 0.0 0.0 0.0 0.0 0.0 0.0 0.0 0.0 0.0
0.0 0.0 0.0 0.0 0.0 0.1 0.0 0.0 0.0 0.0 0.0 0.0 0.0 0.0 0.1 0.1 0.1 0.0 0.0 0.0 0.0 0.0 0.0 0.0 0.0 0.0 0.0 0.0 0.0 0.0 0.0 0.0 0.0 0.0 0.0 0.0 0.0 0.0 0.0 0.0 0.0 0.0 0.0 0.0 0.0 0.0 0.0 0.0 0.0
0.0 0.0 0.0 0.0 0.3 0.0 0.0 0.0 0.0 0.0 0.0 0.0 0.0 0.0 0.1 0.0 0.0 0.0 0.0 0.0 0.0 0.0 0.0 0.0 0.0 0.0 0.0 0.0 0.0 0.0 0.0 0.0 0.0 0.0 0.0 0.0 0.0 0.0 0.0 0.0 0.0 0.0 0.0 0.0 0.0 0.0 0.0 0.0 0.0
0.0 0.0 0.0 0.0 0.1 0.0 0.0 0.0 0.0 0.0 0.0 0.0 0.1 0.1 0.1 0.0 0.0 0.0 0.0 0.0 0.0 0.0 0.0 0.0 0.0 0.0 0.0 0.0 0.0 0.0 0.0 0.0 0.0 0.0 0.0 0.0 0.0 0.0 0.0 0.0 0.0 0.0 0.0 0.0 0.0 0.0 0.0 0.0 0.0
0.0 0.0 0.0 0.5 0.1 0.0 0.0 0.0 0.0 0.0 0.0 0.0 0.1 0.1 0.2 0.0 0.0 0.0 0.0 0.0 0.0 0.0 0.0 0.0 0.0 0.0 0.0 0.0 0.0 0.0 0.0 0.0 0.0 0.0 0.0 0.0 0.0 0.0 0.0 0.0 0.0 0.0 0.0 0.0 0.0 0.0 0.0 0.0 0.0
0.0 0.0 0.1 0.1 0.0 0.0 0.0 0.0 0.0 0.0 0.0 0.0 0.1 0.2 0.2 0.1 0.0 0.0 0.0 0.0 0.0 0.0 0.0 0.0 0.0 0.0 0.0 0.0 0.0 0.0 0.0 0.0 0.0 0.0 0.0 0.0 0.0 0.0 0.0 0.0 0.0 0.0 0.0 0.0 0.0 0.0 0.0 0.0 0.0
0.0 0.0 0.1 0.1 0.0 0.0 0.0 0.0 0.0 0.0 0.0 0.0 0.1 0.1 0.2 0.1 0.0 0.0 0.0 0.0 0.0 0.0 0.0 0.0 0.0 0.0 0.0 0.0 0.0 0.0 0.0 0.0 0.0 0.0 0.0 0.0 0.0 0.0 0.0 0.0 0.0 0.0 0.0 0.0 0.0 0.0 0.0 0.0 0.0
0.0 0.0 0.8 0.2 0.0 0.0 0.0 0.0 0.0 0.0 0.0 0.1 0.1 0.2 0.2 0.1 0.0 0.0 0.0 0.0 0.0 0.0 0.0 0.0 0.0 0.0 0.0 0.0 0.0 0.0 0.0 0.0 0.0 0.0 0.0 0.0 0.0 0.0 0.0 0.0 0.0 0.0 0.0 0.0 0.0 0.0 0.0 0.0 0.0
0.0 0.5 0.1 0.0 0.0 0.0 0.0 0.0 0.1 0.1 0.1 0.1 0.1 0.1 0.1 0.1 0.0 0.0 0.0 0.0 0.0 0.0 0.0 0.0 0.0 0.0 0.0 0.0 0.0 0.0 0.0 0.0 0.0 0.0 0.0 0.0 0.0 0.0 0.0 0.0 0.0 0.0 0.0 0.0 0.0 0.0 0.0 0.0 0.0
0.0 0.3 0.0 0.0 0.0 0.1 0.1 0.1 0.1 0.1 0.1 0.2 0.2 0.1 0.1 0.0 0.0 0.0 0.0 0.0 0.0 0.0 0.0 0.0 0.0 0.0 0.0 0.0 0.0 0.0 0.0 0.0 0.0 0.0 0.0 0.0 0.0 0.0 0.0 0.0 0.0 0.0 0.0 0.0 0.0 0.0 0.0 0.0 0.0
0.0 0.0 0.0 0.0 0.0 0.0 0.1 0.1 0.1 0.1 0.3 0.2 0.2 0.1 0.1 0.1 0.1 0.0 0.2 0.1 0.0 0.0 0.0 0.0 0.0 0.0 0.0 0.0 0.0 0.0 0.0 0.0 0.0 0.0 0.0 0.0 0.0 0.0 0.0 0.0 0.0 0.0 0.0 0.0 0.0 0.0 0.0 0.0 0.0
0.1 0.1 0.0 0.1 0.0 0.0 0.0 0.1 0.1 0.1 0.2 0.1 0.1 0.1 0.1 0.1 0.1 0.1 0.2 0.1 0.0 0.0 0.0 0.0 0.0 0.0 0.0 0.0 0.0 0.0 0.0 0.0 0.0 0.0 0.0 0.0 0.0 0.1 0.0 0.0 0.0 0.0 0.0 0.0 0.0 0.0 0.0 0.0 0.0
0.1 0.1 0.0 0.0 0.1 0.0 0.0 0.0 0.1 0.2 0.2 0.1 0.1 0.1 0.1 0.1 0.1 0.1 0.1 0.1 0.1 0.0 0.0 0.0 0.0 0.0 0.0 0.0 0.0 0.0 0.0 0.0 0.0 0.0 0.0 0.0 0.0 0.1 0.0 0.0 0.0 0.0 0.0 0.0 0.0 0.0 0.0 0.0 0.0
0.1 0.1 0.1 0.0 0.0 0.1 0.1 0.1 0.2 0.2 0.1 0.2 0.2 0.2 0.2 0.2 0.1 0.2 0.3 0.3 0.1 0.1 0.0 0.0 0.0 0.0 0.0 0.0 0.1 0.0 0.0 0.1 0.1 0.0 0.0 0.0 0.0 0.0 0.0 0.0 0.0 0.0 0.0 0.0 0.0 0.0 0.0 0.0 0.0
0.3 1.0 1.9 0.5 0.0 0.1 0.5 1.8 0.3 0.3 0.2 0.2 0.3 0.3 0.3 0.3 0.3 0.3 0.3 0.4 0.4 0.3 0.3 0.2 0.1 0.1 0.1 0.1 0.0 0.0 0.0 0.0 0.2 0.1 0.1 0.0 0.0 0.0 0.0 0.0 0.0 0.0 0.0 0.0 0.0 0.0 0.0 0.0 0.1
3.8 4.5 2.6 1.4 0.2 0.3 1.1 1.4 0.5 0.3 0.2 0.4 0.4 0.4 0.4 0.4 0.4 0.4 0.5 0.4 0.4 0.5 0.5 0.4 0.4 0.3 0.3 0.2 0.2 0.0 0.0 0.2 0.1 0.1 0.1 0.1 0.0 0.0 0.0 0.0 0.0 0.0 0.0 0.0 0.0 0.0 0.0 0.0 0.0
4.9 3.8 2.4 1.8 0.8 0.6 1.2 1.0 0.5 0.3 0.3 0.5 0.5 0.5 0.5 0.6 0.6 0.6 0.7 0.8 0.5 0.4 0.5 0.5 0.4 0.3 0.3 0.3 0.3 0.2 0.1 0.1 0.3 0.1 0.2 0.1 0.1 0.1 0.1 0.0 0.0 0.0 0.1 0.1 0.0 0.0 0.0 0.0 0.0
2.2 2.6 2.6 1.4 0.5 1.0 1.3 1.2 0.8 0.5 0.5 0.5 0.6 0.7 0.8 0.8 0.7 0.7 0.7 0.8 1.0 0.4 0.4 0.4 0.4 0.6 0.5 0.5 0.5 0.5 0.4 0.3 0.2 0.3 0.3 0.2 0.1 0.1 0.1 0.1 0.1 0.1 0.1 0.1 0.1 0.1 0.1 0.0 0.0
2.9 3.8 3.3 1.7 0.5 1.1 1.9 1.4 1.0 0.8 0.9 0.8 0.8 0.8 0.9 0.9 1.0 0.9 0.8 0.8 1.2 1.2 0.6 0.5 0.5 0.6 0.8 0.7 0.6 0.5 0.5 0.4 0.4 0.5 0.4 0.4 0.2 0.2 0.1 0.3 0.1 0.2 0.2 0.2 0.4 0.2 0.1 0.1 0.1
4.2 3.6 2.7 2.9 1.9 1.5 2.6 2.6 1.3 1.0 1.0 0.8 0.9 0.8 1.0 1.5 1.2 1.4 1.0 1.1 1.2 1.4 1.2 0.8 0.6 0.6 0.6 0.6 0.6 0.5 0.5 0.5 0.3 0.3 0.5 0.5 0.7 0.4 0.3 0.3 0.3 0.4 0.3 0.4 0.3 0.4 0.5 0.2 0.2
5.0 1.4 1.6 2.5 4.0 5.6 4.4 9.2 2.4 1.1 1.0 1.0 1.0 1.0 1.1 1.4 1.0 1.2 1.2 1.3 1.1 1.2 1.0 1.1 1.0 0.8 0.8 0.6 0.9 1.1 0.8 1.0 1.0 0.5 0.4 0.5 0.7 0.8 0.8 0.5 0.3 0.4 0.4 0.4 0.4 0.3 0.5 0.6 0.4
3.4 0.8 1.7 3.0 5.0 6.8 4.0 8.5 5.2 1.1 1.4 1.5 1.3 1.1 1.1 1.0 0.9 1.1 1.1 1.1 1.2 1.0 1.0 1.0 1.0 1.0 0.9 0.7 0.9 1.0 1.3 1.1 1.0 0.5 0.5 0.5 0.6 0.7 0.8 0.8 0.6 0.5 0.3 0.4 0.4 0.4 0.5 0.6 0.5
1.6 1.5 2.4 3.4 7.3 11.9 4.8 6.8 6.8 3.7 3.7 1.9 1.5 1.2 1.1 1.1 0.9 1.0 1.1 0.9 1.0 1.2 0.9 0.9 0.9 0.9 0.9 0.8 0.7 0.9 1.2 1.0 1.0 1.0 0.6 0.5 0.5 0.5 0.6 0.7 0.7 0.6 0.5 0.3 0.3 0.3 0.4 0.5 0.6
4.4 9.0 15.0 15.8 15.3 8.4 2.9 5.4 7.3 3.4 2.3 2.3 2.3 1.9 1.5 1.1 1.2 1.3 1.3 1.3 1.1 0.9 0.9 1.4 0.7 1.0 0.7 0.8 0.8 0.8 1.1 1.2 1.3 1.4 1.1 0.7 0.5 0.5 0.6 0.6 0.7 0.6 0.8 0.6 0.5 0.6 0.4 0.4 0.5
4.4 6.7 11.3 11.0 6.9 4.2 3.2 5.3 6.0 2.3 1.8 1.6 1.6 1.7 1.5 1.4 1.3 1.3 1.3 1.2 1.1 0.9 0.8 0.8 1.5 1.0 0.7 0.6 0.7 0.8 1.0 1.2 1.5 1.5 1.0 1.0 0.7 0.5 0.4 0.5 0.5 0.5 0.6 0.7 0.8 0.8 0.8 0.5 0.5
5.9 6.8 5.0 9.9 7.5 5.7 4.4 4.7 3.8 1.4 1.2 1.2 1.4 1.6 1.6 1.7 1.6 1.4 1.2 1.2 1.0 0.9 1.0 0.9 1.2 1.2 1.0 0.7 0.8 0.9 0.9 1.1 1.2 1.2 1.2 1.0 0.8 0.7 0.7 0.5 0.5 0.5 0.6 0.6 0.8 0.8 0.8 0.9 0.5
2.7 4.1 7.4 14.0 13.1 8.7 5.1 4.4 6.0 4.2 2.6 1.7 1.8 2.3 2.4 2.1 1.8 1.6 1.5 1.7 1.2 1.0 0.9 1.0 1.0 1.4 1.2 0.9 1.0 0.8 1.2 0.9 1.0 1.2 1.1 0.8 0.7 0.7 0.8 0.8 0.8 0.7 0.7 0.4 0.6 0.7 0.7 0.9 0.7
3.4 5.5 7.7 10.1 10.0 10.4 7.0 6.3 6.0 4.7 3.4 2.9 2.5 2.8 3.1 2.6 2.5 2.3 2.2 2.0 1.8 1.5 1.2 1.2 1.3 1.4 1.5 1.1 1.0 1.3 1.3 1.0 1.1 1.3 1.2 0.8 0.7 0.6 0.8 1.0 0.8 0.8 0.9 0.6 0.5 0.6 0.6 0.9 0.9
2.9 4.4 6.5 11.9 9.8 7.8 8.0 7.6 4.0 3.0 2.8 2.7 2.7 2.7 2.7 2.3 2.2 2.4 2.4 2.1 2.1 2.0 1.9 1.9 1.7 1.9 1.8 2.1 1.4 1.6 1.4 1.3 1.1 1.3 1.5 0.9 0.9 0.7 0.7 0.8 0.9 0.8 0.7 0.7 0.8 0.6 0.7 0.7 0.8